Beaver Lake Weather Center

Moon Phase Calendar



Beaver Lake Water Level
Online Cameras

 


      

Current Conditions in Prairie Creek
2/22/2024 3:33:40 PM

68°F
Feels Like 68
Clouds
Humidity
64%
Pressure
29.71"
Wind
10.4 mph (N)
Dew Point
56°F
UV Index
1/10 (Low)
Visibility
6 mi

Hourly Forecast

Date & Time Thu, Feb 22
3:00 PM
Thu, Feb 22
4:00 PM
Thu, Feb 22
5:00 PM
Thu, Feb 22
6:00 PM
Thu, Feb 22
7:00 PM
Thu, Feb 22
8:00 PM
Thu, Feb 22
9:00 PM
Thu, Feb 22
10:00 PM
Thu, Feb 22
11:00 PM
Fri, Feb 23
12:00 AM
Fri, Feb 23
1:00 AM
Fri, Feb 23
2:00 AM
Fri, Feb 23
3:00 AM
Fri, Feb 23
4:00 AM
Fri, Feb 23
5:00 AM
Fri, Feb 23
6:00 AM
Fri, Feb 23
7:00 AM
Fri, Feb 23
8:00 AM
Fri, Feb 23
9:00 AM
Fri, Feb 23
10:00 AM
Fri, Feb 23
11:00 AM
Fri, Feb 23
12:00 PM
Fri, Feb 23
1:00 PM
Fri, Feb 23
2:00 PM
Fri, Feb 23
3:00 PM
Fri, Feb 23
4:00 PM
Fri, Feb 23
5:00 PM
Fri, Feb 23
6:00 PM
Fri, Feb 23
7:00 PM
Fri, Feb 23
8:00 PM
Fri, Feb 23
9:00 PM
Fri, Feb 23
10:00 PM
Fri, Feb 23
11:00 PM
Sat, Feb 24
12:00 AM
Sat, Feb 24
1:00 AM
Sat, Feb 24
2:00 AM
Sat, Feb 24
3:00 AM
Sat, Feb 24
4:00 AM
Sat, Feb 24
5:00 AM
Sat, Feb 24
6:00 AM
Sat, Feb 24
7:00 AM
Sat, Feb 24
8:00 AM
Sat, Feb 24
9:00 AM
Sat, Feb 24
10:00 AM
Sat, Feb 24
11:00 AM
Sat, Feb 24
12:00 PM
Sat, Feb 24
1:00 PM
Sat, Feb 24
2:00 PM
Condition
Rain

Clouds

Clouds

Clouds

Clouds

Clouds

Clear

Clear

Clear

Clear

Clear

Clear

Clear

Clear

Clear

Clear

Clear

Clear

Clear

Clear

Clear

Clear

Clear

Clear

Clear

Clear

Clear

Clear

Clear

Clear

Clear

Clear

Clear

Clear

Clear

Clear

Clear

Clear

Clear

Clear

Clear

Clear

Clear

Clear

Clear

Clouds

Clouds

Clouds
Temperature 67°F68°F67°F65°F61°F57°F53°F50°F49°F48°F47°F47°F46°F45°F44°F42°F41°F44°F49°F53°F56°F59°F61°F62°F62°F62°F60°F55°F51°F49°F48°F47°F45°F45°F44°F43°F42°F42°F41°F41°F40°F44°F49°F54°F57°F60°F61°F62°F
Feels Like 67°F68°F67°F64°F60°F56°F51°F48°F47°F45°F44°F44°F43°F42°F41°F39°F38°F42°F46°F50°F54°F56°F58°F59°F60°F59°F57°F52°F48°F47°F45°F44°F43°F42°F42°F41°F40°F40°F40°F41°F40°F44°F49°F51°F55°F57°F59°F60°F
Cloudiness 79%75%75%74%32%17%1%1%1%1%0%0%1%1%1%1%0%0%0%0%0%0%0%0%0%1%2%2%0%0%0%0%0%0%0%0%0%0%0%0%0%0%0%1%8%14%94%51%
Visibility 6 mi6 mi6 mi6 mi6 mi6 mi6 mi6 mi6 mi6 mi6 mi6 mi6 mi6 mi6 mi6 mi6 mi6 mi6 mi6 mi6 mi6 mi6 mi6 mi6 mi6 mi6 mi6 mi6 mi6 mi6 mi6 mi6 mi6 mi6 mi6 mi6 mi6 mi6 mi6 mi6 mi6 mi6 mi6 mi6 mi6 mi6 mi6 mi
Precipitation 71%78%66%61%0%0%0%0%0%0%0%0%0%0%0%0%0%0%0%0%0%0%0%0%0%0%0%0%0%0%0%0%0%0%0%0%0%0%0%0%0%0%0%0%0%0%0%0%
Humidity 67%64%65%67%69%68%67%70%74%75%76%76%77%80%82%84%86%78%60%48%43%38%36%34%34%36%38%44%52%55%58%61%63%64%66%67%68%69%70%71%72%66%55%47%41%36%33%32%
Dew Point 56°F56°F55°F53°F51°F47°F41°F40°F40°F40°F40°F39°F39°F39°F38°F37°F37°F37°F35°F34°F34°F33°F33°F33°F33°F34°F34°F33°F33°F33°F33°F33°F33°F33°F33°F32°F32°F32°F32°F31°F31°F33°F33°F34°F34°F32°F32°F32°F
Pressure 29.71"29.71"29.71"29.74"29.77"29.8"29.85"29.88"29.88"29.91"29.91"29.91"29.94"29.94"29.97"30"30"30.03"30.03"30"30"30"29.94"29.94"29.91"29.91"29.91"29.94"29.97"29.97"30"30.03"30.03"30.03"30.03"30.03"30.06"30.06"30.06"30.09"30.12"30.12"30.15"30.12"30.12"30.09"30.06"30.03"
Wind Speed 9.7 mph10.7 mph11.6 mph10.8 mph10.4 mph9.8 mph8 mph5.3 mph4.9 mph5.3 mph5.9 mph6.2 mph6.6 mph5.4 mph5 mph4.9 mph4.6 mph4.3 mph8.3 mph9.1 mph10.4 mph11.7 mph12.5 mph13.2 mph13.2 mph11.8 mph10.7 mph8.3 mph6.2 mph6.1 mph5.6 mph4.9 mph4.2 mph4.1 mph3.8 mph3.8 mph3.7 mph3.7 mph3.3 mph2.5 mph2.2 mph1.2 mph1.7 mph1.8 mph2.6 mph4 mph5.6 mph6.8 mph
Wind
Direction
345°
NNW
351°
N
355°
N
357°
N

N
359°
N
357°
N
342°
NNW
326°
NW
322°
NW
321°
NW
324°
NW
325°
NW
331°
NNW
314°
NW
305°
NW
295°
WNW
302°
WNW
317°
NW
318°
NW
310°
NW
306°
NW
304°
NW
300°
WNW
299°
WNW
293°
WNW
294°
WNW
294°
WNW
282°
WNW
291°
WNW
294°
WNW
290°
WNW
287°
WNW
293°
WNW
284°
WNW
281°
W
287°
WNW
280°
W
282°
WNW
294°
WNW
283°
WNW
298°
WNW
327°
NNW
301°
WNW
289°
WNW
270°
W
259°
W
254°
WSW

Daily Forecast

Date High Low Precip. Humidity
Today
Feb 22

Rain
68 °F
49 °F
78%
68%
Friday
Feb 23

Clear
62 °F
41 °F
0%
38%
Saturday
Feb 24

Clouds
63 °F
40 °F
0%
36%
Sunday
Feb 25

Clouds
69 °F
49 °F
0%
47%
Monday
Feb 26

Clouds
75 °F
53 °F
0%
42%
Tuesday
Feb 27

Rain
71 °F
66 °F
70%
73%
Wednesday
Feb 28

Rain
68 °F
35 °F
85%
48%
Thursday
Feb 29

Clear
53 °F
25 °F
0%
21%
Friday
Mar 1

Clear
62 °F
34 °F
0%
28%
Saturday
Mar 2

Clouds
64 °F
38 °F
0%
29%
Sunday
Mar 3

Clouds
54 °F
43 °F
34%
81%
Monday
Mar 4

Clouds
67 °F
50 °F
0%
55%
Tuesday
Mar 5

Rain
70 °F
57 °F
20%
52%
Wednesday
Mar 6

Clear
70 °F
52 °F
0%
49%
Thursday
Mar 7

Rain
66 °F
52 °F
30%
57%
Friday
Mar 8

Clouds
62 °F
45 °F
0%
34%

Temperature 8-14 Day Outlook



Precipitation 8-14 Day Outlook






About Us
Contact Us
Site Map
Search Site
Advertise With Us
   
Beaver.USLakes.info
THE BEAVER LAKE WEBSITE

Copyright 2024, Lakes Online
Privacy    |    Legal